Simultaneous Nadir Overpasses (SNOs) Predictions

Prediction of SNOs between GOES-16 and METOP-C Satellite Orbit:

Table of predicted SNOs for the next 14.0 days since TLE Epoch: 3/7/2020
Index Date Time (GOES-16) GOES-16 Lat,Lon METOP-C Lat,Lon Distance(km) Time Diff (sec)
1 03/08/2020 14:39:37 -0.02, -75.19 0.47, -77.32 242.93 80
2 03/09/2020 14:21:38 -0.02, -75.19 -0.67, -72.33 325.94 80
3 03/11/2020 02:37:59 0.02, -75.17 -0.35, -76.93 199.27 80
4 03/12/2020 02:19:59 0.02, -75.17 0.73, -71.93 369.87 80
5 03/13/2020 14:36:13 -0.02, -75.19 0.28, -76.49 148.55 80
6 03/14/2020 14:18:14 -0.02, -75.19 -0.86, -71.50 420.82 80
7 03/16/2020 02:37:14 0.03, -75.19 -0.16, -76.10 103.66 80
8 03/17/2020 02:13:55 0.03, -75.19 0.92, -71.10 465.92 80
9 03/18/2020 14:32:48 -0.04, -75.22 0.09, -75.66 51.74 80




NCC Satellite Simultaneous Nadir Overpasses (SNOs) Prediction Service
